Other Public Products
Issued by NWS Grand Forks, ND

Home | Current Version | Previous Version | Text Only | Print | Product List | Glossary On
Versions: 1 2 3 4 5 6 7 8 9 10 11 12 13 14 15 16 17 18 19 20 21 22 23 24 25 26 27 28 29 30 31 32 33 34 35 36 37 38 39 40 41 42 43 44 45 46 47 48 49 50
000
FPUS83 KFGF 291410
OPUFGF
PRAIRIE TO PINES WEATHER ROUNDUP
NATIONAL WEATHER SERVICE EASTERN NORTH DAKOTA/GRAND FORKS ND
900 AM CDT THU JUN 29 2017

 **SATELLITE DATA USED TO AUGMENT SKY COVER AT AUTOMATED STATIONS**
 *****  WEATHER ACROSS EASTERN NORTH DAKOTA  *****

CITY           SKY/WX    TMP DP  RH WIND       PRES   REMARKS
GRAND FORKS    CLOUDY    61  60  97 CALM      29.80R
GRAND FORKS AF CLOUDY    61  61 100 CALM      29.80R
GRAND CITY NWS NOT AVBL
BUXTON           N/A     66  65  96 N2          N/A
DEVILS LAKE    FAIR      66  61  84 W5        29.81R
FARGO          CLOUDY    64  60  87 N7        29.79R
WAHPETON ARPT  CLOUDY    61  55  82 N7        29.79F
$$

 *****  WEATHER ACROSS CENTRAL AND WESTERN NORTH DAKOTA  *****

CITY           SKY/WX    TMP DP  RH WIND       PRES   REMARKS
JAMESTOWN      FAIR      65  58  78 N5        29.80R
BISMARCK       PTSUNNY   62  57  83 SW3       29.82R
MINOT          FAIR      70  52  52 CALM      29.80S
MINOT AFB      FAIR      68  52  57 CALM      29.79S
GARRISON         N/A     65  53  65 CALM      29.81R
WILLISTON      FAIR      67  50  54 N10       29.83R
DICKINSON      FAIR      63  46  54 SE6       29.80R
HETTINGER      CLOUDY    63  51  65 W9        29.85R
$$

 *****  OTHER OBSERVATIONS NORTHEAST NORTH DAKOTA  *****

CITY           SKY/WX    TMP DP  RH WIND       PRES   REMARKS
WALHALLA       NOT AVBL
LANGDON        FAIR      66  66 100 CALM      29.81R
CAVALIER       FOG       63 N/A N/A CALM      29.78R VSB 1/2
GRAFTON        PTSUNNY   61  61 100 CALM      29.82R
CANDO          NOT AVBL
FORT TOTTEN      N/A     69  64  84 CALM      29.95S
ROLLA            N/A     68  55  64 NW7       29.82R
RUGBY          NOT AVBL
 ***** THE ABOVE OBSERVATIONS ARE NON NWS ARE NOT QUALITY
        CONTROLLED AND MAY MIS-REPORT RAIN FOR SNOW...
$$

 *****  OTHER OBSERVATIONS SOUTHEAST NORTH DAKOTA *****

CITY           SKY/WX    TMP DP  RH WIND       PRES   REMARKS
COOPERSTOWN    FOG       59  59 100 S5        29.82R VSB 1/4
VALLEY CITY    FOG       59  59 100 CALM      29.82S VSB 1/2
OAKES          NOT AVBL
GWINNER        CLOUDY    63  61  94 CALM      29.79S
SHEYENNE NWR     N/A     64  62  94 NE7       29.95S
BUFFALO          N/A     64  59  83 NW2         N/A
WYNDMERE       NOT AVBL
 ***** THE ABOVE OBSERVATIONS ARE NON NWS ARE NOT QUALITY
       CONTROLLED AND MAY MIS-REPORT RAIN FOR SNOW...
$$

  *****  WEATHER ACROSS NORTHERN MINNESOTA  *****

CITY           SKY/WX    TMP DP  RH WIND       PRES   REMARKS
FLAG ISLAND    FAIR      64  57  77 NE5       29.75R
WARROAD        FAIR      63  59  88 N5        29.76S
ROSEAU         FAIR      63  57  82 CALM      29.77R
HALLOCK        FAIR      63  61  94 CALM      29.77R
THF RVR FALLS  PTSUNNY   62  60  93 W6        29.80R
HALSTAD        NOT AVBL
FOSSTON        CLOUDY    61  61 100 W6        29.80R
BAUDETTE       FAIR      66  60  81 N10       29.73S
WASKISH        FAIR      63  61  94 NW5       29.74R
CROOKSTON      CLOUDY    61  59  94 CALM      29.81R
$$
  *****  WEATHER ACROSS CENTRAL AND WEST MINNESOTA  *****

CITY           SKY/WX    TMP DP  RH WIND       PRES   REMARKS
BEMIDJI        PTSUNNY   62  58  87 NW8       29.76R
PARK RAPIDS    PTSUNNY   64  56  75 NW8       29.77R
WADENA         CLOUDY    63  57  82 NW7       29.79R
DETROIT LAKES  PTSUNNY   61  59  94 NW6       29.81R
MOORHEAD       CLOUDY    63  57  82 N5        29.80S
FERGUS FALLS   CLOUDY    63  61  94 N7        29.77F
ELBOW LAKE     CLOUDY    62  59  91 W9        29.79F
MORRIS MN      PTSUNNY   64  59  82 N9        29.77F HAZE
STAPLES        CLOUDY    63  57  82 W9        29.77R
WHEATON        CLOUDY    63  57  82 N10       29.78F
$$
  *****  WEATHER ELSEWHERE ACROSS MINNESOTA  *****

CITY           SKY/WX    TMP DP  RH WIND       PRES   REMARKS
DULUTH         CLOUDY    59  59 100 NW10      29.65R
INTRNTL FALLS  CLOUDY    62  57  83 N7        29.72R
ELY            CLOUDY    57  57 100 N5        29.66R
CLOQUET        CLOUDY    61  55  82 NW12      29.67R
BRAINERD       CLOUDY    64  59  83 NW10      29.74R
HIBBING        CLOUDY    59  58  96 NW9       29.68R
ALEXANDRIA     CLOUDY    64  59  83 N7        29.79S
SAINT CLOUD    CLOUDY    64  59  83 NW10      29.75R
MINNEAPOLIS    CLOUDY    67  58  72 NW13      29.73S
$$

  *****  WEATHER ACROSS SOUTH DAKOTA  *****

CITY           SKY/WX    TMP DP  RH WIND       PRES   REMARKS
SIOUX FALLS    CLOUDY    67  63  87 CALM      29.79R
BROOKINGS      FAIR      63  59  87 SW3       29.82R
WATERTOWN      FAIR      62  59  90 CALM      29.80R
HURON          PTSUNNY   63  54  72 W5        29.82R
SISSETON         N/A     65  61  87 N9        29.78S
ABERDEEN       FAIR      62  54  74 CALM      29.80R
MITCHELL       CLOUDY    65  58  78 N7        29.80R
PIERRE         CLOUDY    62  53  72 N5        29.81R
MOBRIDGE       CLOUDY    65  52  62 NW5       29.81R
RAPID CITY     PTSUNNY   60  54  80 NW8       29.88R
$$

  *****  SOME WEATHER IN NEARBY STATES *****

CITY           SKY/WX    TMP DP  RH WIND       PRES   REMARKS
GLASGOW MT     FAIR      59  47  64 NW17      29.90R
GREAT FALLS MT CLOUDY    53  45  74 NW8       30.11R
CHEYENNE WY    FAIR      67  36  31 W17       30.01S
SCOTTSBLUFF NE FAIR      63  49  60 NW9       29.95R
OMAHA NE       CLOUDY    74  63  68 SW15G24   29.81R
DES MOINES IA  CLOUDY    73  65  75 SW17      29.78R
DAVENPORT IA   NOT AVBL
CHICAGO IL     PTSUNNY   74  61  63 SW22      29.77S
EAU CLAIRE WI  CLOUDY    66  61  84 W14       29.68R
LA CROSSE WI   FAIR      74  63  68 W9        29.71S
$$

  *****  SOME NATIONAL WEATHER *****

CITY           SKY/WX    TMP DP  RH WIND       PRES   REMARKS
LA GUARDIA NY  PTSUNNY   77  60  55 SW14      30.12F
RALEIGH NC     PTSUNNY   76  62  62 SW7       30.24S
ATLANTA GA     CLOUDY    76  70  82 SE8       30.18S
NEW ORLEANS LA PTSUNNY   77  74  90 SE9       30.00R
OKLAHOMA CITY  FAIR      78  70  76 S20G29    29.82R
ALBUQUERQUE NM FAIR      73  28  18 SW7       30.10R
SALT LAKE CITY FAIR      69  46  43 SE6       30.01R
LOS ANGELES CA CLOUDY    64  57  78 VRB3      29.92R
BOISE ID       FAIR      61  37  41 W5        30.02R
SEATTLE WA     PTSUNNY   55  51  86 S3        30.16R
$$

*** WEATHER ACROSS MANITOBA...SASKATCHEWAN AND ONTARIO ***
                ***ONTARIO***

CITY           SKY/WX    TMP DP  RH WIND       PRES   REMARKS
GERALDTON      PTSUNNY   63  54  72 E14       29.75S
THUNDER BAY    RAIN      59  59 100 NE12G20   29.63S
SIOUX LOOKOUT  CLOUDY    63  54  72 VRB2      29.76R
TORONTO        LGT RAIN  64  59  82 E6        29.89F
BIG TROUT LK   CLOUDY    57  46  67 SE7       29.91S
PICKLE LAKE    CLOUDY    59  52  77 NE12      29.82R
DRYDEN         CLOUDY    61  54  77 NE10      29.75R
KENORA         NOT AVBL
$$
                *** MANITOBA***

CITY           SKY/WX    TMP DP  RH WIND       PRES   REMARKS
BRANDON        PTSUNNY   61  57  88 W10       29.81R
DAUPHIN        CLOUDY    61  57  88 W3        29.80R
ISLAND LAKE    CLOUDY    57  54  88 SE7       29.81R
PILOT MOUND      N/A     68  59  73 NE2         N/A
THE PAS        CLOUDY    52  48  87 W8        29.82R
THOMPSON       LGT RAIN  50  48  93 E9        29.81S FOG
WINNIPEG       MOSUNNY   66  61  82 NE5       29.77F
LYNN LAKE      LGT RAIN  45  45 100 NE7       29.87S FOG
CHURCHILL      PTSUNNY   46  41  81 E12G18    30.10R
GILLAM         CLOUDY    48  41  76 E9G20     29.91F
$$
                ***SASKATCHEWAN***

CITY           SKY/WX    TMP DP  RH WIND       PRES   REMARKS
ESTEVAN        PTSUNNY   63  57  82 E9        29.83S
KINDERSLEY     CLOUDY    48  43  81 N13       30.01R
LLOYDMINSTER   MOSUNNY   50  43  76 NE8       30.03R
PRINCE ALBERT  CLOUDY    48  43  81 N13G18    29.95R
REGINA         PTSUNNY   59  54  82 NW12      29.88R
YORKTON        LGT RAIN  59  54  82 W2        29.83R


USA.gov is the U.S. government's official web portal to all federal, state and local government web resources and services.